Hourly Data Report for May 08, 2003

SHERBROOKE A
QUEBEC

45°26'00.000" N
71°41'00.000" W
241.40 m
7028124
71610
YSC

Download Data

Hourly Data (May 2003)
Hourly Data Report for May 8, 2003
TIME
LST
Temp Definition
°C
Dew Point Definition
°C
Rel Hum Definition
%
Precip. Amount Definition
mm

Wind Dir Definition
10's deg

Wind Spd Definition
km/h
Visibility Definition
km
Stn Press Definition
kPa
Hmdx Definition


Wind Chill Definition


Weather Definition


00:00 1.3 0.7 96   12 9 3.5 98.69      
01:00 0.8 0.3 96   9 4 4.8 98.67      
02:00 1.2 0.4 94   9 6 12.9 98.62      
03:00 1.1 0.2 94   9 6 15.0 98.64      
04:00 0.7 0.0 95   8 6 8.0 98.65      
05:00 0.6 -0.2 94   5 6 11.3 98.67      
06:00 2.6 1.4 92   7 6 15.0 98.72      
07:00 6.1 4.0 86   7 6 24.1 98.71     Mainly Clear
08:00 9.6 4.5 70   5 6 24.1 98.70     Mainly Clear
09:00 12.9 3.8 54   13 7 24.1 98.63     Mainly Clear
10:00 15.1 5.2 52   7 9 24.1 98.60     Mainly Clear
11:00 17.7 4.8 42   34 11 24.1 98.55     Mainly Clear
12:00 18.4 2.2 34   36 9 24.1 98.51     Mainly Clear
13:00 18.7 0.7 30   4 13 24.1 98.46     Mainly Clear
14:00 18.7 -0.6 27   3 11 24.1 98.43     Mainly Clear
15:00 19.7 -1.0 25   4 9 24.1 98.39     Mainly Clear
16:00 18.5 -1.6 26   5 7 24.1 98.40     Mainly Clear
17:00 17.0 -0.8 30   35 4 15.0 98.42      
18:00 17.9 1.1 32   3 13 15.0 98.41      
19:00 14.7 1.9 42   3 9 15.0 98.43      
20:00 13.0 2.0 47   3 9 15.0 98.45      
21:00 10.6 2.0 55   7 6 15.0 98.47      
22:00 11.3 2.9 56   4 17 15.0 98.46      
23:00 9.9 3.5 64   33 7 15.0 98.50      

Notes on Data Quality.

Legend

  • E = Estimated
  • M = Missing
  • NA = Not Available*
  • [empty] = Indicates an unobserved value
Date modified: